Каюкос

США     35°25′39″N   120°52′22″W
темп.,
°C
ветер,
м/с
пор.,
м/с
влажн.,
%
обл.,
%
осадки,
мм/ч
давл.,
гПа
погр.,
м
21 октября, чт
чт2123:00+13св018369 0.0 101910
02:00+13всв119387 0.0 101910
05:00+13с1192100 0.0 101911
08:00+15ссв1185100 0.0 101924
11:00+22ссз125627 0.0 1020678
14:00+24зюз2250100 0.0 10171016
17:00+18юз3478100 0.0 1017294
20:00+14юз2396100 0.0 101969
22 октября, пт
пт2223:00+13ююз1196100 0.0 101914
02:00+12юз1196100 0.0 101715
05:00+12юз229789 0.0 101724
08:00+12ю2294100 0.0 101744
11:00+16юз3477100 0.0 1017430
14:00+18зюз3473100 0.0 1015690
17:00+16з2382100 0.0 1014549
20:00+13зюз2294100 0.1 101591
23 октября, сб
сб2323:00+11ссз1289100 0.1 101561
02:00+9с119034 0.0 101420
05:00+8ссв22905 0.0 101425
08:00+9ссв228825 0.0 101470
11:00+16с23491 0.0 1014708
14:00+19сз233447 0.0 10121246
17:00+17з234489 0.0 1011554
20:00+10з1181100 0.0 101316
24 октября, вс
вс2423:00+11юз117758 0.0 101316
02:00+11ююз1170100 0.0 101214
05:00+11ююз2277100 0.0 101128
08:00+13ю2578100 0.1 1011253
11:00+13ю41290100 1.2 1011502
14:00+14ю71395100 0.2 1010794
17:00+14ю8149499 0.2 1008909
20:00+14ю81595100 0.0 1008949
25 октября, пн
пн2523:00+14ю101796100 0.1 10071061
02:00+14ю122096100 1.4 10041110
05:00+14ююз91697100 19.0 10051152
08:00+13юз5119698 8.1 1008857
11:00+15зюз487828 9.3 1010809
14:00+16зюз576194 0.1 10101022
17:00+14зюз476344 0.1 1012791
20:00+10юз22870 0.0 101456